Time,TemperatureF,DewpointF,PressureIn,WindDirection,WindDirectionDegrees,WindSpeedMPH,WindSpeedGustMPH,Humidity,HourlyPrecipIn,Conditions,Clouds,dailyrainin,SolarRadiationWatts/m^2,SoftwareType,DateUTC
2013-06-12 00:02:00,58.0,45.0,29.94,WNW,293,0.0,2.0,61,0.00,,,0.00,0.000000,,2013-06-12 07:02:00,
2013-06-12 00:12:00,58.0,45.0,29.94,WNW,293,0.0,2.0,61,0.00,,,0.00,0.000000,,2013-06-12 07:12:00,
2013-06-12 00:22:00,57.0,45.0,29.96,WNW,293,0.0,1.0,63,0.00,,,0.00,0.000000,,2013-06-12 07:22:00,
2013-06-12 00:33:00,57.0,45.0,29.96,WNW,293,0.0,1.0,63,0.00,,,0.00,0.000000,,2013-06-12 07:33:00,
2013-06-12 00:43:00,56.0,44.0,29.95,ESE,103,1.0,1.0,65,0.00,,,0.00,0.000000,,2013-06-12 07:43:00,
2013-06-12 00:53:00,56.0,44.0,29.95,ESE,103,1.0,1.0,65,0.00,,,0.00,0.000000,,2013-06-12 07:53:00,
2013-06-12 01:02:00,55.0,43.0,29.95,West,261,1.0,2.0,64,0.00,,,0.00,0.000000,,2013-06-12 08:02:00,
2013-06-12 01:12:00,55.0,43.0,29.95,West,261,1.0,2.0,64,0.00,,,0.00,0.000000,,2013-06-12 08:12:00,
2013-06-12 01:22:00,55.0,43.0,29.96,WSW,247,1.0,2.0,65,0.00,,,0.00,0.000000,,2013-06-12 08:22:00,
2013-06-12 01:33:00,55.0,44.0,29.96,WSW,247,0.0,2.0,67,0.00,,,0.00,0.000000,,2013-06-12 08:33:00,
2013-06-12 01:42:00,54.0,45.0,29.96,ENE,66,1.0,3.0,71,0.00,,,0.00,0.000000,,2013-06-12 08:42:00,
2013-06-12 01:53:00,54.0,45.0,29.96,ENE,66,1.0,3.0,71,0.00,,,0.00,0.000000,,2013-06-12 08:53:00,
2013-06-12 02:01:00,54.0,46.0,29.95,NE,38,1.0,4.0,73,0.00,,,0.00,0.000000,,2013-06-12 09:01:00,
2013-06-12 02:11:00,54.0,46.0,29.95,SE,130,1.0,4.0,73,0.00,,,0.00,0.000000,,2013-06-12 09:11:00,
2013-06-12 02:22:00,54.0,46.0,29.95,SE,130,1.0,4.0,73,0.00,,,0.00,0.000000,,2013-06-12 09:22:00,
2013-06-12 02:33:00,53.0,45.0,29.95,East,84,0.0,2.0,73,0.00,,,0.00,0.000000,,2013-06-12 09:33:00,
2013-06-12 02:42:00,53.0,45.0,29.95,SSE,165,1.0,2.0,74,0.00,,,0.00,0.000000,,2013-06-12 09:42:00,
2013-06-12 02:53:00,53.0,45.0,29.95,SSE,165,1.0,2.0,74,0.00,,,0.00,0.000000,,2013-06-12 09:53:00,
2013-06-12 03:01:00,52.0,45.0,29.93,SE,132,1.0,1.0,76,0.00,,,0.00,0.000000,,2013-06-12 10:01:00,
2013-06-12 03:11:00,52.0,45.0,29.93,SE,132,1.0,1.0,76,0.00,,,0.00,0.000000,,2013-06-12 10:11:00,
2013-06-12 03:23:00,51.0,44.0,29.95,SE,132,0.0,1.0,77,0.00,,,0.00,0.000000,,2013-06-12 10:23:00,
2013-06-12 03:33:00,51.0,44.0,29.95,SSE,161,1.0,2.0,78,0.00,,,0.00,0.000000,,2013-06-12 10:33:00,
2013-06-12 03:43:00,51.0,44.0,29.95,SSE,161,1.0,2.0,78,0.00,,,0.00,0.000000,,2013-06-12 10:43:00,
2013-06-12 03:53:00,51.0,44.0,29.95,SSE,161,1.0,2.0,78,0.00,,,0.00,0.000000,,2013-06-12 10:53:00,
2013-06-12 04:02:00,50.0,44.0,29.95,SSE,161,0.0,1.0,81,0.00,,,0.00,0.000000,,2013-06-12 11:02:00,
2013-06-12 04:12:00,50.0,44.0,29.95,SSE,161,0.0,1.0,81,0.00,,,0.00,0.000000,,2013-06-12 11:12:00,
2013-06-12 04:24:00,50.0,44.0,29.95,SSE,161,1.0,2.0,81,0.00,,,0.00,0.000000,,2013-06-12 11:24:00,
2013-06-12 04:33:00,50.0,45.0,29.95,SSE,161,0.0,2.0,82,0.00,,,0.00,0.000000,,2013-06-12 11:33:00,
2013-06-12 04:42:00,49.0,44.0,29.95,East,81,0.0,2.0,82,0.00,,,0.00,0.000000,,2013-06-12 11:42:00,
2013-06-12 04:53:00,49.0,44.0,29.95,East,81,0.0,2.0,82,0.00,,,0.00,0.000000,,2013-06-12 11:53:00,
2013-06-12 05:01:00,49.0,44.0,29.95,ENE,74,0.0,2.0,83,0.00,,,0.00,0.000000,,2013-06-12 12:01:00,
2013-06-12 05:11:00,49.0,44.0,29.95,ENE,74,0.0,2.0,83,0.00,,,0.00,0.000000,,2013-06-12 12:11:00,
2013-06-12 05:23:00,49.0,44.0,29.96,ENE,74,0.0,1.0,84,0.00,,,0.00,0.000000,,2013-06-12 12:23:00,
2013-06-12 05:33:00,49.0,44.0,29.96,East,90,0.0,2.0,84,0.00,,,0.00,0.000000,,2013-06-12 12:33:00,
2013-06-12 05:42:00,49.0,44.0,29.96,East,90,0.0,2.0,84,0.00,,,0.00,0.000000,,2013-06-12 12:42:00,
2013-06-12 05:53:00,49.0,44.0,29.96,East,90,0.0,2.0,84,0.00,,,0.00,0.000000,,2013-06-12 12:53:00,
2013-06-12 06:01:00,49.0,44.0,29.96,East,90,0.0,2.0,84,0.00,,,0.00,0.000000,,2013-06-12 13:01:00,
2013-06-12 06:11:00,48.0,43.0,29.96,East,90,1.0,2.0,84,0.00,,,0.00,0.000000,,2013-06-12 13:11:00,
2013-06-12 06:22:00,48.0,43.0,29.96,East,94,1.0,1.0,84,0.00,,,0.00,7.000000,,2013-06-12 13:22:00,
2013-06-12 06:32:00,48.0,43.0,29.97,East,94,0.0,1.0,84,0.00,,,0.00,12.000000,,2013-06-12 13:32:00,
2013-06-12 06:43:00,48.0,44.0,29.97,ESE,103,0.0,2.0,85,0.00,,,0.00,18.000000,,2013-06-12 13:43:00,
2013-06-12 06:53:00,48.0,44.0,29.97,ESE,103,0.0,2.0,85,0.00,,,0.00,18.000000,,2013-06-12 13:53:00,
2013-06-12 07:01:00,48.0,44.0,29.97,ESE,103,1.0,1.0,86,0.00,,,0.00,21.000000,,2013-06-12 14:01:00,
2013-06-12 07:11:00,48.0,44.0,29.97,ESE,103,1.0,1.0,86,0.00,,,0.00,21.000000,,2013-06-12 14:11:00,
2013-06-12 07:23:00,49.0,45.0,29.98,ESE,103,1.0,2.0,85,0.00,,,0.00,26.000000,,2013-06-12 14:23:00,
2013-06-12 07:33:00,49.0,45.0,29.98,ESE,103,1.0,2.0,85,0.00,,,0.00,26.000000,,2013-06-12 14:33:00,
2013-06-12 07:43:00,50.0,45.0,29.98,ESE,103,0.0,1.0,84,0.00,,,0.00,67.000000,,2013-06-12 14:43:00,
2013-06-12 07:53:00,50.0,45.0,29.98,ESE,103,0.0,1.0,84,0.00,,,0.00,67.000000,,2013-06-12 14:53:00,
2013-06-12 08:01:00,52.0,46.0,29.99,NNW,345,0.0,1.0,79,0.00,,,0.00,301.000000,,2013-06-12 15:01:00,
2013-06-12 08:11:00,55.0,47.0,29.99,SSW,208,1.0,3.0,73,0.00,,,0.00,350.000000,,2013-06-12 15:11:00,
2013-06-12 08:23:00,55.0,47.0,29.99,SSW,208,1.0,3.0,73,0.00,,,0.00,350.000000,,2013-06-12 15:23:00,
2013-06-12 08:32:00,57.0,47.0,29.99,SW,222,1.0,3.0,68,0.00,,,0.00,394.000000,,2013-06-12 15:32:00,
2013-06-12 08:43:00,57.0,46.0,29.99,West,265,1.0,4.0,66,0.00,,,0.00,452.000000,,2013-06-12 15:43:00,
2013-06-12 08:52:00,57.0,46.0,29.99,West,265,1.0,4.0,66,0.00,,,0.00,452.000000,,2013-06-12 15:52:00,
2013-06-12 09:01:00,57.0,46.0,29.99,West,265,1.0,4.0,66,0.00,,,0.00,452.000000,,2013-06-12 16:01:00,
2013-06-12 09:11:00,59.0,46.0,30.00,WNW,290,2.0,3.0,63,0.00,,,0.00,548.000000,,2013-06-12 16:11:00,
2013-06-12 09:21:00,59.0,46.0,30.00,WNW,290,2.0,3.0,63,0.00,,,0.00,548.000000,,2013-06-12 16:21:00,
2013-06-12 09:32:00,59.0,46.0,30.00,WNW,290,2.0,3.0,63,0.00,,,0.00,548.000000,,2013-06-12 16:32:00,
2013-06-12 09:43:00,62.0,47.0,30.01,SW,223,2.0,4.0,57,0.00,,,0.00,643.000000,,2013-06-12 16:43:00,
2013-06-12 09:52:00,62.0,47.0,30.01,SW,223,2.0,4.0,57,0.00,,,0.00,643.000000,,2013-06-12 16:52:00,
2013-06-12 10:01:00,62.0,47.0,30.01,SW,223,2.0,4.0,57,0.00,,,0.00,643.000000,,2013-06-12 17:01:00,
2013-06-12 10:11:00,62.0,47.0,30.01,SW,223,2.0,4.0,57,0.00,,,0.00,643.000000,,2013-06-12 17:11:00,
2013-06-12 10:22:00,62.0,47.0,30.01,SW,223,2.0,4.0,57,0.00,,,0.00,643.000000,,2013-06-12 17:22:00,
2013-06-12 10:33:00,65.0,45.0,30.01,SE,129,2.0,6.0,49,0.00,,,0.00,773.000000,,2013-06-12 17:33:00,
2013-06-12 10:42:00,66.0,46.0,30.01,West,275,2.0,6.0,48,0.00,,,0.00,810.000000,,2013-06-12 17:42:00,
2013-06-12 10:52:00,66.0,46.0,30.01,West,275,2.0,6.0,48,0.00,,,0.00,810.000000,,2013-06-12 17:52:00,
2013-06-12 11:02:00,69.0,46.0,30.02,SSW,211,2.0,4.0,44,0.00,,,0.00,846.000000,,2013-06-12 18:02:00,
2013-06-12 11:11:00,69.0,46.0,30.02,SSW,211,2.0,4.0,44,0.00,,,0.00,846.000000,,2013-06-12 18:11:00,
2013-06-12 11:22:00,69.0,46.0,30.02,SSW,196,1.0,5.0,44,0.00,,,0.00,881.000000,,2013-06-12 18:22:00,
2013-06-12 11:32:00,71.0,46.0,30.02,SW,217,3.0,7.0,41,0.00,,,0.00,907.000000,,2013-06-12 18:32:00,
2013-06-12 11:43:00,72.0,46.0,30.02,WNW,302,1.0,4.0,40,0.00,,,0.00,932.000000,,2013-06-12 18:43:00,
2013-06-12 11:53:00,72.0,46.0,30.02,WNW,302,1.0,4.0,40,0.00,,,0.00,932.000000,,2013-06-12 18:53:00,
2013-06-12 12:01:00,72.0,46.0,30.02,WNW,302,1.0,4.0,40,0.00,,,0.00,932.000000,,2013-06-12 19:01:00,
2013-06-12 12:11:00,72.0,46.0,30.02,WNW,302,1.0,4.0,40,0.00,,,0.00,932.000000,,2013-06-12 19:11:00,
2013-06-12 12:22:00,74.0,46.0,30.02,West,274,2.0,4.0,37,0.00,,,0.00,981.000000,,2013-06-12 19:22:00,
2013-06-12 12:32:00,75.0,45.0,30.02,West,261,2.0,6.0,35,0.00,,,0.00,995.000000,,2013-06-12 19:32:00,
2013-06-12 12:42:00,76.0,46.0,30.01,WNW,301,2.0,5.0,35,0.00,,,0.00,1011.000000,,2013-06-12 19:42:00,
2013-06-12 12:52:00,76.0,46.0,30.01,WNW,301,2.0,5.0,35,0.00,,,0.00,1011.000000,,2013-06-12 19:52:00,
2013-06-12 13:01:00,77.0,46.0,30.01,WNW,290,2.0,8.0,33,0.00,,,0.00,1018.000000,,2013-06-12 20:01:00,
2013-06-12 13:11:00,77.0,45.0,30.01,West,259,2.0,6.0,32,0.00,,,0.00,1025.000000,,2013-06-12 20:11:00,
2013-06-12 13:21:00,77.0,45.0,30.01,West,259,2.0,6.0,32,0.00,,,0.00,1025.000000,,2013-06-12 20:21:00,
2013-06-12 13:32:00,78.0,44.0,30.01,WNW,290,3.0,7.0,30,0.00,,,0.00,1027.000000,,2013-06-12 20:32:00,
2013-06-12 13:42:00,78.0,44.0,30.01,WNW,290,3.0,7.0,30,0.00,,,0.00,1027.000000,,2013-06-12 20:42:00,
2013-06-12 13:54:00,78.0,44.0,30.01,WNW,290,3.0,7.0,30,0.00,,,0.00,1027.000000,,2013-06-12 20:54:00,
2013-06-12 14:01:00,78.0,44.0,30.01,WNW,290,3.0,7.0,30,0.00,,,0.00,1027.000000,,2013-06-12 21:01:00,
2013-06-12 14:11:00,78.0,44.0,30.01,WNW,290,3.0,7.0,30,0.00,,,0.00,1027.000000,,2013-06-12 21:11:00,
2013-06-12 16:32:00,82.0,42.0,29.98,NW,317,2.0,5.0,24,0.00,,,0.00,793.000000,,2013-06-12 23:32:00,
2013-06-12 16:42:00,81.0,43.0,29.98,WSW,254,3.0,6.0,26,0.00,,,0.00,752.000000,,2013-06-12 23:42:00,
2013-06-12 16:52:00,81.0,43.0,29.98,WSW,254,3.0,6.0,26,0.00,,,0.00,752.000000,,2013-06-12 23:52:00,
2013-06-12 17:01:00,81.0,43.0,29.98,WSW,254,3.0,6.0,26,0.00,,,0.00,752.000000,,2013-06-13 00:01:00,
2013-06-12 17:11:00,80.0,44.0,29.98,WSW,256,2.0,7.0,28,0.00,,,0.00,664.000000,,2013-06-13 00:11:00,
2013-06-12 17:22:00,80.0,44.0,29.98,WSW,256,2.0,7.0,28,0.00,,,0.00,664.000000,,2013-06-13 00:22:00,
2013-06-12 17:32:00,79.0,44.0,29.98,West,279,2.0,7.0,29,0.00,,,0.00,619.000000,,2013-06-13 00:32:00,
2013-06-12 17:42:00,77.0,43.0,29.98,WSW,244,2.0,7.0,30,0.00,,,0.00,570.000000,,2013-06-13 00:42:00,
2013-06-12 17:52:00,77.0,43.0,29.98,WSW,244,2.0,7.0,30,0.00,,,0.00,570.000000,,2013-06-13 00:52:00,
2013-06-12 18:01:00,77.0,42.0,29.97,NW,304,3.0,6.0,29,0.00,,,0.00,399.000000,,2013-06-13 01:01:00,
2013-06-12 18:11:00,77.0,42.0,29.97,NW,304,3.0,6.0,29,0.00,,,0.00,399.000000,,2013-06-13 01:11:00,
2013-06-12 18:22:00,75.0,42.0,29.97,West,273,2.0,8.0,31,0.00,,,0.00,155.000000,,2013-06-13 01:22:00,
2013-06-12 18:32:00,74.0,42.0,29.97,WSW,238,2.0,8.0,32,0.00,,,0.00,33.000000,,2013-06-13 01:32:00,
2013-06-12 18:42:00,72.0,41.0,29.98,WSW,240,2.0,7.0,32,0.00,,,0.00,28.000000,,2013-06-13 01:42:00,
2013-06-12 18:53:00,72.0,41.0,29.98,WSW,240,2.0,7.0,32,0.00,,,0.00,28.000000,,2013-06-13 01:53:00,
2013-06-12 19:01:00,72.0,41.0,29.98,WSW,240,2.0,7.0,32,0.00,,,0.00,28.000000,,2013-06-13 02:01:00,
2013-06-12 19:11:00,71.0,42.0,29.98,North,355,2.0,6.0,35,0.00,,,0.00,23.000000,,2013-06-13 02:11:00,
2013-06-12 19:22:00,71.0,42.0,29.98,North,355,2.0,6.0,35,0.00,,,0.00,23.000000,,2013-06-13 02:22:00,
2013-06-12 19:33:00,71.0,42.0,29.98,North,355,2.0,6.0,35,0.00,,,0.00,23.000000,,2013-06-13 02:33:00,
2013-06-12 19:42:00,68.0,41.0,29.99,West,279,2.0,7.0,37,0.00,,,0.00,18.000000,,2013-06-13 02:42:00,
2013-06-12 19:52:00,68.0,41.0,29.99,West,279,2.0,7.0,37,0.00,,,0.00,18.000000,,2013-06-13 02:52:00,
2013-06-12 20:01:00,68.0,41.0,29.99,West,279,2.0,7.0,37,0.00,,,0.00,18.000000,,2013-06-13 03:01:00,
2013-06-12 20:11:00,66.0,41.0,29.99,South,181,2.0,7.0,40,0.00,,,0.00,12.000000,,2013-06-13 03:11:00,
2013-06-12 20:22:00,66.0,41.0,29.99,South,181,2.0,7.0,40,0.00,,,0.00,12.000000,,2013-06-13 03:22:00,
2013-06-12 20:33:00,66.0,41.0,29.99,South,181,2.0,7.0,40,0.00,,,0.00,12.000000,,2013-06-13 03:33:00,
2013-06-12 20:42:00,64.0,42.0,30.00,South,190,1.0,5.0,44,0.00,,,0.00,5.000000,,2013-06-13 03:42:00,
2013-06-12 20:52:00,64.0,42.0,30.00,South,190,1.0,5.0,44,0.00,,,0.00,5.000000,,2013-06-13 03:52:00,
2013-06-12 21:01:00,63.0,42.0,30.01,West,277,1.0,4.0,46,0.00,,,0.00,0.000000,,2013-06-13 04:01:00,
2013-06-12 21:11:00,63.0,42.0,30.01,West,277,1.0,4.0,46,0.00,,,0.00,0.000000,,2013-06-13 04:11:00,
2013-06-12 21:22:00,62.0,42.0,30.01,West,265,1.0,3.0,48,0.00,,,0.00,0.000000,,2013-06-13 04:22:00,
2013-06-12 21:32:00,61.0,42.0,30.01,WNW,302,2.0,4.0,50,0.00,,,0.00,0.000000,,2013-06-13 04:32:00,
2013-06-12 21:43:00,60.0,42.0,30.01,SW,220,1.0,7.0,52,0.00,,,0.00,0.000000,,2013-06-13 04:43:00,
2013-06-12 21:53:00,60.0,42.0,30.01,SW,220,1.0,7.0,52,0.00,,,0.00,0.000000,,2013-06-13 04:53:00,
2013-06-12 22:01:00,60.0,43.0,30.01,SE,137,1.0,4.0,54,0.00,,,0.00,0.000000,,2013-06-13 05:01:00,
2013-06-12 22:11:00,59.0,43.0,30.02,West,273,1.0,3.0,56,0.00,,,0.00,0.000000,,2013-06-13 05:11:00,
2013-06-12 22:23:00,59.0,43.0,30.02,West,273,1.0,3.0,56,0.00,,,0.00,0.000000,,2013-06-13 05:23:00,
2013-06-12 22:32:00,58.0,43.0,30.02,WNW,299,1.0,6.0,57,0.00,,,0.00,0.000000,,2013-06-13 05:32:00,
2013-06-12 22:42:00,58.0,43.0,30.02,West,277,2.0,6.0,58,0.00,,,0.00,0.000000,,2013-06-13 05:42:00,
2013-06-12 22:53:00,58.0,43.0,30.02,West,277,2.0,6.0,58,0.00,,,0.00,0.000000,,2013-06-13 05:53:00,
2013-06-12 23:02:00,58.0,43.0,30.02,West,277,2.0,6.0,58,0.00,,,0.00,0.000000,,2013-06-13 06:02:00,
2013-06-12 23:11:00,58.0,43.0,30.02,West,277,2.0,6.0,58,0.00,,,0.00,0.000000,,2013-06-13 06:11:00,
2013-06-12 23:21:00,57.0,43.0,30.02,SW,217,1.0,4.0,60,0.00,,,0.00,0.000000,,2013-06-13 06:21:00,
2013-06-12 23:33:00,56.0,43.0,30.02,WNW,285,1.0,4.0,61,0.00,,,0.00,0.000000,,2013-06-13 06:33:00,
2013-06-12 23:44:00,56.0,43.0,30.02,WNW,285,1.0,4.0,61,0.00,,,0.00,0.000000,,2013-06-13 06:44:00,
2013-06-12 23:52:00,56.0,43.0,30.02,WNW,285,1.0,4.0,61,0.00,,,0.00,0.000000,,2013-06-13 06:52:00,